Regional Weather Roundup
Issued by NWS

Home | Current Version | Previous Version | Text Only | Print | Product List | Glossary Off
Versions: 1 2 3 4 5 6 7 8 9 10 11 12 13 14 15 16 17 18 19 20 21 22 23 24 25 26 27 28 29 30 31 32 33 34 35 36 37 38 39 40 41 42 43 44 45 46 47 48 49 50

631
ASUS44 KJAN 301010
RWRMS

MISSISSIPPI HOURLY WEATHER ROUNDUP
NATIONAL WEATHER SERVICE JACKSON MS
500 AM CDT THU OCT 30 2014

NOTE: "FAIR: INDICATES FEW OR NO CLOUDS BELOW 12,000 FEET WITH NO
SIGNIFICANT WEATHER AND/OR OBSTRUCTIONS TO VISIBILITY.

MSZ001>002-007>008-010>013-018>021-025>028-034>036-301100-
NORTHWEST MISSISSIPPI

CITY           SKY/WX    TMP DP  RH WIND       PRES   REMARKS
CLARKSDALE       N/A     48  48 100 CALM      30.15S VSB 1/2
CLEVELAND      FAIR      48  48 100 CALM      30.12F
GREENWOOD      CLEAR     43  42  97 NE3       30.13S
GREENVILLE     CLEAR     48  46  93 CALM      30.12F
GRENADA        FAIR      41  41 100 CALM      30.14R
OLIVE BRANCH   CLEAR     43  43 100 CALM      30.15R
OXFORD         FAIR      39  39 100 CALM      30.15S
TUNICA         FOG       43  41  93 N3        30.15R VSB 1/2
$$

MSZ003>006-009-014>017-022>024-029>033-037>039-301100-
NORTHEAST MISSISSIPPI

CITY           SKY/WX    TMP DP  RH WIND       PRES   REMARKS
COLUMBUS AFB   CLEAR     41  41  99 NW2       30.13R
CORINTH        FAIR      39  37  93 CALM      30.14R
GOLDN TRIANGLE CLEAR    N/A N/A N/A NW5       30.11S
STARKVILLE     FAIR      39  37  93 CALM      30.12S
TUPELO         CLEAR     43  41  93 CALM      30.13R
$$

MSZ040-058-301100-
CENTRAL MISSISSIPPI

CITY           SKY/WX    TMP DP  RH WIND       PRES   REMARKS
JACKSON INTL   CLEAR     43  41  93 CALM      30.12S
JACKSON HAWKNS CLEAR     48  44  86 CALM      30.13S
MERIDIAN KEY   CLEAR     41  39  93 CALM      30.12S
MERIDIAN NAS   CLEAR     41  40  96 CALM      30.12S
RAYMOND        FAIR      41  36  81 CALM      30.13S HAZE
VICKSBURG      CLEAR     39  38  96 N3        30.13F
$$

MSZ059>079-301100-
SOUTH MISSISSIPPI

CITY           SKY/WX    TMP DP  RH WIND       PRES   REMARKS
BROOKHAVEN     FAIR      45  45 100 CALM      30.13S
COLUMBIA         N/A     43  43 100 MISG      30.09S
HATTIESBURG    CLEAR     48  46  93 NW5       30.11R
MCCOMB         CLEAR     53  44  71 N6        30.10S
NATCHEZ        CLEAR     45  41  87 CALM      30.13R
PINE BELT      CLEAR     48  41  76 N7        30.11S
$$

MSZ080>082-301100-
COASTAL MISSISSIPPI

CITY           SKY/WX    TMP DP  RH WIND       PRES   REMARKS
BILOXI         PTCLDY    60  49  68 NE10      30.06R
PASCAGOULA     PTCLDY    57  52  83 N7        30.05S
GULFPORT       CLEAR     59  45  59 N8        30.05S
$$



USA.gov is the U.S. government's official web portal to all federal, state and local government web resources and services.